Simultaneous Nadir Overpasses (SNOs) Predictions

Prediction of SNOs between AQUA and GOES-15 Satellite Orbit:

Table of predicted SNOs for the next 14.0 days since TLE Epoch: 1/11/2019
Index Date Time (AQUA) AQUA Lat,Lon GOES-15 Lat,Lon Distance(km) Time Diff (sec)
1 01/12/2019 22:04:11 0.29,-127.18 0.06,-128.20 115.57 80
2 01/13/2019 10:25:27 0.77,-132.35 -0.07,-128.29 461.01 80
3 01/14/2019 21:51:59 0.87,-124.21 0.06,-128.14 445.73 80
4 01/15/2019 10:13:15 0.18,-129.38 -0.06,-128.23 130.95 80
5 01/17/2019 10:01:03 -0.41,-126.41 -0.06,-128.16 198.38 80
6 01/17/2019 22:22:27 -0.73,-131.60 0.06,-128.04 405.51 80
7 01/19/2019 22:10:16 -0.07,-128.64 0.06,-127.96 77.20 80
8 01/21/2019 21:58:04 0.52,-125.68 0.05,-127.88 250.49 80
9 01/22/2019 10:19:19 0.58,-130.83 -0.06,-127.96 326.84 80
10 01/24/2019 10:07:08 -0.08,-127.88 -0.06,-127.88 2.74 80




NCC Satellite Simultaneous Nadir Overpasses (SNOs) Prediction Service
